Weather observations for the past three days for
Caldwell - Caldwell Industrial Airport
Imperial (Metric)
Date Time (mdt) Wind (mph) Vis. (mi.) Weather Sky Cond. Temperature (ºF) Relative Humidity Wind Chill (°F) Heat Index (°F) Pressure Precipitation (in)
Air Dwpt 6 hour altimeter (in) sea level (mb) 1 hr 3 hr 6 hr
Max. Min.
07 18:56 N 10 9.00 Fair CLR 75.9 39 26% 77 29.89 1010.8
07 17:56 N 12 G 16 10.00 Fair CLR 78.1 42.1 79 72 28% 78 29.89 1010.8
07 16:56 N 8 10.00 Fair CLR 79 44.1 29% 79 29.91 1011.2
07 15:56 NW 5 10.00 Fair CLR 79 41 26% 78 29.93 1011.9
07 14:56 W 10 G 16 10.00 Fair CLR 77 39.9 26% 77 29.94 1012.5
07 13:56 Calm 10.00 Fair CLR 77 41 28% 78 29.96 1013.1
07 12:56 NW 5 10.00 Fair CLR 73.9 41 31% 29.98 1013.6
07 11:56 Vrbl 5 10.00 Fair CLR 72 39 72 52 30% 30 1014.2
07 10:56 W 9 10.00 Fair CLR 71.1 39.9 32% 30.01 1014.6
07 09:56 W 7 10.00 Fair CLR 69.1 41 36% 30.01 1014.9
07 08:56 Calm 10.00 Fair CLR 66 44.1 45% 30.02 1015.0
07 07:56 Calm 10.00 Fair CLR 59 48 67% 30.01 1014.8
07 06:56 Calm 10.00 Fair CLR 53.1 43 69% 29.99 1014.5
07 05:56 Calm 10.00 Fair CLR 55 43 63 54 64% 29.99 1014.0
07 04:56 W 9 10.00 Fair CLR 55.9 46 70% 29.98 1013.6
07 03:56 W 6 10.00 Fair CLR 57 45 64% 29.98 1013.7
07 02:56 W 6 10.00 Fair CLR 59 46 62% 29.97 1013.3
07 01:56 W 7 10.00 Fair CLR 60.1 46.9 62% 29.97 1013.4
07 00:56 W 7 10.00 Fair CLR 61 46.9 60% 29.96 1013.2
06 23:56 Calm 10.00 Fair CLR 63 46 79 63 54% 29.96 1013.1
06 22:56 Calm 10.00 Overcast OVC120 66.9 46.9 49% 29.95 1012.9
06 21:56 Calm 10.00 Mostly Cloudy BKN110 69.1 46 44% 29.93 1012.3
06 20:56 N 3 10.00 Mostly Cloudy BKN110 69.1 48.9 49% 29.92 1012.1
06 19:56 NE 6 10.00 Partly Cloudy SCT120 73 46 38% 29.92 1012.2
06 18:56 N 9 10.00 Fair CLR 75 48.9 40% 77 29.93 1012.6
06 17:56 NE 6 10.00 Fair CLR 78.1 45 78.1 66 31% 78 29.94 1012.8
06 16:56 NE 9 10.00 Fair CLR 78.1 44.1 30% 78 29.97 1013.8
06 15:56 N 5 10.00 Fair CLR 77 39.9 26% 77 30.02 1015.2
06 14:56 N 7 10.00 Fair CLR 75 39.9 28% 77 30.05 1016.3
06 13:56 Calm 10.00 Fair CLR 71.1 34 26% 30.07 1017.0
06 12:56 NE 9 10.00 Fair CLR 69.1 35.1 29% 30.09 1017.7
06 11:56 E 12 10.00 Fair CLR 66 30.9 66.9 48 27% 30.11 1018.4
06 10:56 SE 13 G 18 10.00 Fair CLR 63 28 27% 30.11 1018.7
06 09:56 E 14 G 22 10.00 Fair CLR 59 32 36% 30.11 1018.6
06 08:56 E 13 10.00 Fair CLR 55 30.9 40% 30.12 1018.8
06 07:56 E 12 10.00 Fair CLR 51.1 28.9 43% 30.1 1018.3
06 06:56 E 13 10.00 Fair CLR 48 28.9 48% 43 30.07 1017.4
06 05:56 E 14 10.00 Fair CLR 50 28.9 62.1 50 44% 45 30.06 1016.6
06 04:56 E 10 10.00 Fair CLR 52 28.9 41% 30.05 1016.1
06 03:56 SE 16 10.00 Fair CLR 54 30 40% 30.02 1015.4
06 02:56 S 3 10.00 Fair CLR 55 39 55% 29.98 1013.8
06 01:56 W 9 10.00 Fair CLR 55.9 39 53% 29.94 1012.6
06 00:56 NW 3 10.00 Fair CLR 62.1 37 40% 29.92 1011.6
05 23:56 W 8 10.00 Fair CLR 61 39 79 61 44% 29.89 1010.7
05 22:56 W 12 10.00 Fair CLR 63 39 41% 29.85 1009.6
05 21:56 NW 8 10.00 Fair CLR 68 37.9 33% 29.83 1008.5
05 20:56 NW 7 10.00 Fair CLR 70 41 35% 29.8 1007.5
05 19:56 NW 6 10.00 Fair CLR 75 37.9 26% 77 29.77 1006.7
05 18:56 NW 8 G 22 10.00 Fair CLR 77 37 24% 77 29.76 1006.2
05 17:56 W 16 G 21 10.00 Fair CLR 79 35.1 80.1 70 20% 78 29.76 1006.1
05 16:56 W 8 G 18 10.00 Partly Cloudy SCT100 79 39.9 25% 78 29.77 1006.5
05 15:56 W 15 10.00 Fair CLR 78.1 41 27% 78 29.79 1007.1
05 14:56 W 8 5.00 Fair with Haze CLR 77 42.1 29% 78 29.81 1007.8
05 13:56 NW 3 10.00 Fair CLR 73.9 39 28% 29.83 1008.5
05 12:56 S 8 10.00 Fair CLR 72 37.9 29% 29.84 1008.8
05 11:56 Vrbl 5 10.00 Fair CLR 70 37 70 51.1 30% 29.85 1009.3
05 10:56 S 12 10.00 Fair CLR 69.1 37.9 32% 29.84 1008.9
05 09:56 S 14 10.00 Fair CLR 68 39 35% 29.83 1008.5
05 08:56 S 10 10.00 Fair CLR 63 45 52% 29.83 1008.4
05 07:56 E 3 10.00 Fair CLR 54 46 75% 29.8 1007.8
05 06:56 W 5 10.00 Fair CLR 54 41 62% 29.77 1006.6
05 05:56 SW 5 10.00 Fair CLR 55.9 41 66.9 55.9 57% 29.74 1005.5
05 04:56 W 8 10.00 Fair CLR 57.9 39.9 51% 29.72 1004.7
05 03:56 W 12 10.00 Fair CLR 57.9 39.9 51% 29.7 1004.1
05 02:56 W 9 10.00 Fair CLR 57.9 39 50% 29.7 1003.9
05 01:56 W 12 10.00 Fair CLR 60.1 39 46% 29.69 1003.7
05 00:56 NW 13 10.00 Fair CLR 64.9 37 36% 29.68 1003.2
04 23:56 NW 9 G 16 10.00 Fair CLR 66.9 39 82 66 36% 29.67 1002.9
04 22:56 NW 7 10.00 Fair CLR 66.9 41 39% 29.66 1002.8
04 21:56 W 12 10.00 Fair CLR 70 41 35% 29.65 1002.4
04 20:56 W 8 10.00 Fair CLR 72 41 33% 29.63 1001.7
04 19:56 NW 8 10.00 Fair CLR 77 39 26% 77 29.62 1001.5
Date Time (mdt) Wind (mph) Vis. (mi.) Weather Sky Cond. Air Dwpt Max. Min. Relative Humidity Wind Chill (°F) Heat Index (°F) altimeter (in) sea level (mb) 1 hr 3 hr 6 hr
6 hour
Temperature (ºF) Pressure Precipitation (in)